Regional Weather Roundup
Issued by NWS

Home | Current Version | Previous Version | Text Only | Print | Product List | Glossary On
Versions: 1 2 3 4 5 6 7 8 9 10 11 12 13 14 15 16 17 18 19 20 21 22 23 24 25 26 27 28 29 30 31 32 33 34 35 36 37 38 39 40 41 42 43 44 45 46 47 48 49 50
000
ASUS44 KEWX 271111
RWRTX
SOUTH TEXAS REGIONAL WEATHER ROUNDUP
NATIONAL WEATHER SERVICE AUSTIN/SAN ANTONIO TX
600 AM CDT WED JUL 27 2016

NOTE: "FAIR" INDICATED FEW OR NO CLOUDS BELOW 12,000 FEET WITH NO
SIGNIFICANT WEATHER AND/OR OBSTRUCTIONS TO VISIBILITY.

* - THESE STATIONS ARE NOT NWS OR FAA STATIONS...AND ARE NOT SUBJECT
    TO NWS AND FAA QUALITY CONTROL.

TXZ171-172-183>190-271200-
TEXAS HILL COUNTRY AND EDWARDS PLATEAU

CITY           SKY/WX    TMP DP  RH WIND       PRES   REMARKS
JUNCTION       CLOUDY    73  68  84 SE3       29.99R
*LLANO         CLEAR     72  72 100 CALM      30.00R
BURNET         CLEAR     73  70  90 CALM      30.00R
*HORSESHOE BAY CLEAR     73  71  95 CALM      29.98R
*KERRVILLE     CLOUDY    73  71  95 CALM      29.98S FOG
*FREDERICKSBRG PTCLDY    71  68  92 CALM      29.99R
*ROCKSPRINGS   MOCLDY    72  70  94 CALM      30.03R FOG
*BOERNE STAGE  CLOUDY    72  70  94 CALM      29.98R
*CASTROVILLE   CLOUDY    77  73  86 CALM      29.96R
HONDO          CLOUDY    76  74  93 NE5       29.96R
*UVALDE        CLOUDY    74  73  97 E3        29.95R FOG
DEL RIO        CLEAR     73  73 100 E6        29.93R
LAUGHLIN AFB   PTCLDY    73  73  99 N2        29.94R
CARRIZO SPRGS  CLOUDY    75  72  88 CALM      29.90S
*EAGLE PASS    PTSUNNY   73  72  94 E3        29.93R
$$

TXZ173-191>194-202-209-217>225-228-271200-
CENTRAL AND SOUTH CENTRAL TEXAS

CITY           SKY/WX    TMP DP  RH WIND       PRES   REMARKS
GEORGETOWN     MOCLDY    75  70  83 SW3       29.96R
AUSTIN/BERGSTM PTCLDY    74  74 100 CALM      29.93S THUNDER
AUSTIN/MABRY   PTCLDY    76  74  93 CALM      29.95S
*AUSTIN/EXEC     N/A     75  75 100 CALM      29.95S FOG
*LAGO VISTA    CLEAR     75  73  92 CALM      29.98R
SAN MARCOS     CLOUDY    75  75 100 W5        29.96R VSB 1
NEW BRAUNFELS  CLOUDY    76  74  93 CALM      29.92S
RANDOLPH AFB   CLOUDY    75  75 100 CALM      29.94R
PT SAN ANTONIO CLOUDY    77  73  86 N1        29.93R
SAN ANTONIO    CLOUDY    77  72  84 CALM      29.95R
STINSON FIELD  CLOUDY    78  72  81 CALM      29.92R
*PLEASANTON    PTCLDY    74  71  91 CALM      29.93R
*LA GRANGE       N/A     76  74  93 CALM      29.92R
*GIDDINGS      CLEAR     73  72  94 CALM      29.99R
*GONZALES      MOCLDY    74  74 100 CALM      29.93R
$$

TXZ163>164-176>182-195>201-210>213-226-227-235-271200-
SOUTHEAST TEXAS

CITY           SKY/WX    TMP DP  RH WIND       PRES   REMARKS
COLLEGE STN    PTCLDY    76  74  93 SE3       29.95R
*BRYAN         MOCLDY    73  73 100 CALM      29.97R
*CALDWELL      CLEAR     73  73 100 CALM      29.98R
*CROCKETT      PTCLDY    73  73 100 CALM      29.98R FOG
*BRENHAM       CLEAR     77  76  96 CALM      29.95R
HUNTSVILLE     MOCLDY    77  74  90 S5        29.96R
CONROE         CLOUDY    75  73  93 CALM      29.96R
HOUSTON BUSH   CLOUDY    79  75  87 CALM      29.94R
HOUSTON HOBBY  CLOUDY    79  77  94 CALM      29.93R
*HOUSTON SW AP CLOUDY    75  74  97 CALM      29.94R
PEARLAND       CLOUDY    80  77  90 CALM      29.94R
HOUSTON HOOKS  CLOUDY    76  75  97 CALM      29.95R
ELLINGTON FLD  MOCLDY    79  75  89 CALM      29.93S
SUGAR LAND     CLOUDY    76  74  93 CALM      29.93R
*HOUSTON EXEC  CLOUDY    75  75 100 CALM      29.95R
*CLEVELAND MUN NOT AVBL
*WHARTON       CLOUDY    77  74  91 S12       29.95R
*COLUMBUS      FAIR      74  74 100 CALM      29.94R FOG
*EAGLE LAKE    PTSUNNY   76  75  99 CALM      29.93S
$$

TXZ214>216-236>238-271200-
THE UPPER TEXAS COAST

CITY           SKY/WX    TMP DP  RH WIND       PRES   REMARKS
*ORANGE        CLOUDY    78  74  88 CALM      29.95S
PORT ARTHUR    CLOUDY    78  76  93 S6        29.94R
GALVESTON      LGT RAIN  84  80  88 S13       29.93R HX  97
ANGLETON       CLOUDY    81  77  88 CALM      29.93R
*BAY CITY      CLOUDY    82  79  93 CALM      29.93R HX  92
PALACIOS       CLOUDY    85  78  80 S9        29.92R HX  96
$$

TXZ229>234-239>247-271200-
TEXAS COASTAL BEND AND RIO GRANDE PLAINS

CITY           SKY/WX    TMP DP  RH WIND       PRES   REMARKS
VICTORIA       CLOUDY    75  74  96 E5        29.93R
*BEEVILLE      CLOUDY    69  69 100 E3        29.91R FOG
ROCKPORT       MOCLDY    83  77  82 S7        29.90R HX  92
*PORT ARANSAS  CLOUDY    83  79  87 S14       29.91R HX  95
*PORT LAVACA   CLOUDY    79  77  94 CALM      29.92
*INGLESIDE     MOCLDY    85  79  81 S9        29.91R HX  98
CORPUS CHRISTI CLOUDY    82  79  90 S9        29.90R HX  92
CORPUS NAS     CLOUDY    83  79  88 S12       29.90R HX  94
*ROBSTOWN      MOCLDY    81  78  90 S6        29.91R
ALICE          PTCLDY    80  77  90 S10       29.89R
KINGSVILLE NAS CLEAR     80  80 100 SE9       29.90R
COTULLA        CLOUDY    78  74  87 E5        29.91R
*FAITH RANCH     N/A    N/A N/A N/A MISG        N/A
LAREDO         CLOUDY    78  75  90 SE6       29.90R
$$

TXZ248>255-271200-
DEEP SOUTH TEXAS

CITY           SKY/WX    TMP DP  RH WIND       PRES   REMARKS
BROWNSVILLE    PTCLDY    80  78  94 S8        29.90R
PORT ISABEL    PTCLDY    82  77  84 S8        29.89R HX  90
*SOUTH PADRE     N/A     81  77  89 S7        29.90R
HARLINGEN      PTCLDY    80  77  90 S9        29.89R
*HEBBRONVILLE  PTCLDY    78  75  90 SE7       29.91S
MCALLEN        PTCLDY    84  77  79 S10       29.89S HX  94
*WESLACO       PTCLDY    76  36  23 S9        29.88S
FALFURRIAS     PTCLDY    80  76  87 SE6       29.89S
EDINBURG       CLOUDY    84  76  77 S7        29.90R HX  93
*ZAPATA        PTCLDY    79  75  89 SE5       29.88R
$$

TXZ213>215-236>238-242>244-246-247-251-254-255-271200-
CMAN STATIONS

STATION/POSITION TIME  TEMP    WIND        PRES    WAVE
                       AIR SEA DIR/SP/G            HT/PER
                 (UTC) (F)     (DEG/KT/KT) (MB)    (FT/S)
SABINE PASS      1000   81 88  250/  8/ 18 1015.1
SEA RIM ST PARK  1100   76     300/ 22/ 26 1014.1
NORTH JETTY/GLS  1000   85 87                N/A
EAGLE POINT      1000   83 80  240/  4/  5 1013.0
MORGANS POINT    1000   83 88  190/  4/  6 1013.0
MISSION/ARANSAS  1000   85                 1013.0
PORT ARANSAS     1100   84 85  170/ 18/ 19 1012.6
MALAQUITE BEACH  1000   84 87  160/ 16/ 19 1012.2
BAFFIN BAY       1000   83 84  170/ 12/ 16 1012.5
PORT ISABEL      1000   83 87  160/ 10/ 12 1012.2
$$

GMZ080-GMZ150>470-271200-
OFFSHORE BUOY REPORTS

STATION/POSITION TIME  TEMP    WIND        PRES    WAVE
                       AIR SEA DIR/SP/G            HT/PER
                 (UTC) (F)     (DEG/KT/KT) (MB)    (FT/S)
20 E GALVESTON   1050   85 86  220/ 14/ 17 1013.2    3/ 6
90 E PT ARANSAS  1050   86 86  180/ 16/ 19 1012.9    4/ 6
35 NE PT MANSFLD 1050   85 85  180/ 17/ 19 1012.0    5/ 5
200 E PT ISABEL  1050   85 86  140/ 14/ 16 1014.2    3/ 6
$$



USA.gov is the U.S. government's official web portal to all federal, state and local government web resources and services.